Starlink 11267

operational
NORAD ID: 60994 Int'l Des: 2024-158 Owner: SPXS Country: US Constellation: starlink
LEOCIRCULAR

关于 Starlink 11267

正在加载描述...

实时位置

正在加载3D地球...

即将过境

高度历史

Altitude vs Time

uPlot chart will show altitude changes over time

两行轨道根数

1 60994U 24158E 25349.34739877 -.00000603 00000-0 -11664-6 0 9994
2 60994 53.1585 337.3449 0001196 115.3932 244.7210 15.69716130 74348
Epoch: Dec 15, 2025 • Age: 32 hours

当前状态

高度 360.9 km
速度 7.70 km/s
星下点 26.89°N, 18.77°E
发射日期 Sep 5, 2024
运行时间 1.2 years
类型 internet

技术详情

分类 Payload
质量 960.00 kg
干质量 910.00 kg
总质量 960.00 kg
长度 0.30 m
直径 4.10 m
跨度 29.00 m
形状 Box + pan
制造商 SPXS
平台类型 Starlink V2MD
阶段状态 In Orbit
所有者/国家 SPXS/US

大型星座

Loading constellations...